Time,TemperatureF,DewpointF,PressureIn,WindDirection,WindDirectionDegrees,WindSpeedMPH,WindSpeedGustMPH,Humidity,HourlyPrecipIn,Conditions,Clouds,dailyrainin,SoftwareType,DateUTC
2013-01-01 00:02:00,32.0,-99.9,30.29,SW,229,0.0,0.0,-999,0.00,,,0.02,,2013-01-01 07:02:00,
2013-01-01 00:12:00,31.0,-99.9,30.29,SW,229,0.0,0.0,-999,0.00,,,0.02,,2013-01-01 07:12:00,
2013-01-01 00:22:00,31.0,-99.9,30.29,SW,229,0.0,0.0,-999,0.00,,,0.02,,2013-01-01 07:22:00,
2013-01-01 00:32:00,31.0,-99.9,30.29,SW,229,0.0,0.0,-999,0.00,,,0.02,,2013-01-01 07:32:00,
2013-01-01 00:42:00,31.0,-99.9,30.29,SW,229,0.0,0.0,-999,0.00,,,0.02,,2013-01-01 07:42:00,
2013-01-01 00:53:00,30.0,-99.9,30.30,SSW,199,0.0,0.0,-999,0.00,,,0.02,,2013-01-01 07:53:00,
2013-01-01 01:02:00,29.0,-99.9,30.30,SSW,199,0.0,0.0,-999,0.00,,,0.02,,2013-01-01 08:02:00,
2013-01-01 01:12:00,29.0,-99.9,30.30,SSW,199,0.0,0.0,-999,0.00,,,0.02,,2013-01-01 08:12:00,
2013-01-01 01:22:00,31.0,-99.9,30.30,SSW,199,0.0,0.0,-999,0.00,,,0.02,,2013-01-01 08:22:00,
2013-01-01 01:32:00,29.0,-99.9,30.30,SSW,199,0.0,0.0,-999,0.00,,,0.02,,2013-01-01 08:32:00,
2013-01-01 01:42:00,29.0,-99.9,30.30,SSW,199,0.0,0.0,-999,0.00,,,0.02,,2013-01-01 08:42:00,
2013-01-01 01:53:00,29.0,-99.9,30.30,SSW,199,0.0,0.0,-999,0.00,,,0.02,,2013-01-01 08:53:00,
2013-01-01 02:02:00,30.0,-99.9,30.31,SSW,199,0.0,0.0,-999,0.00,,,0.02,,2013-01-01 09:02:00,
2013-01-01 02:12:00,30.0,-99.9,30.31,SSW,199,0.0,0.0,-999,0.00,,,0.02,,2013-01-01 09:12:00,
2013-01-01 02:22:00,28.0,-99.9,30.31,SSW,199,0.0,0.0,-999,0.00,,,0.01,,2013-01-01 09:22:00,
2013-01-01 02:32:00,28.0,-99.9,30.31,SSW,199,0.0,0.0,-999,0.00,,,0.01,,2013-01-01 09:32:00,
2013-01-01 02:42:00,28.0,-99.9,30.31,SSW,199,0.0,0.0,-999,0.00,,,0.01,,2013-01-01 09:42:00,
2013-01-01 02:53:00,28.0,-99.9,30.31,SSW,203,0.0,3.0,-999,0.00,,,0.01,,2013-01-01 09:53:00,
2013-01-01 03:02:00,28.0,-99.9,30.31,SSW,203,0.0,0.0,-999,0.00,,,0.01,,2013-01-01 10:02:00,
2013-01-01 03:12:00,27.0,-99.9,30.32,SSW,203,0.0,0.0,-999,0.00,,,0.01,,2013-01-01 10:12:00,
2013-01-01 03:22:00,27.0,-99.9,30.32,SSW,203,0.0,0.0,-999,0.00,,,0.01,,2013-01-01 10:22:00,
2013-01-01 03:33:00,28.0,-99.9,30.32,SSW,203,0.0,0.0,-999,0.00,,,0.01,,2013-01-01 10:33:00,
2013-01-01 03:43:00,28.0,-99.9,30.32,SSW,203,0.0,0.0,-999,0.00,,,0.01,,2013-01-01 10:43:00,
2013-01-01 03:53:00,28.0,-99.9,30.32,SSW,203,0.0,0.0,-999,0.00,,,0.01,,2013-01-01 10:53:00,
2013-01-01 04:02:00,28.0,-99.9,30.32,SSW,203,0.0,0.0,-999,0.00,,,0.01,,2013-01-01 11:02:00,
2013-01-01 04:12:00,27.0,-99.9,30.31,SSW,203,0.0,0.0,-999,0.00,,,0.01,,2013-01-01 11:12:00,
2013-01-01 04:23:00,27.0,-99.9,30.31,SSW,203,0.0,0.0,-999,0.00,,,0.01,,2013-01-01 11:23:00,
2013-01-01 04:33:00,27.0,-99.9,30.31,SSW,203,0.0,0.0,-999,0.00,,,0.01,,2013-01-01 11:33:00,
2013-01-01 04:43:00,27.0,-99.9,30.31,SSW,203,0.0,0.0,-999,0.00,,,0.01,,2013-01-01 11:43:00,
2013-01-01 04:53:00,26.0,-99.9,30.31,SSW,203,0.0,0.0,-999,0.00,,,0.01,,2013-01-01 11:53:00,
2013-01-01 05:03:00,25.0,-99.9,30.31,SSW,203,0.0,0.0,-999,0.00,,,0.01,,2013-01-01 12:03:00,
2013-01-01 05:12:00,25.0,-99.9,30.31,SSW,203,0.0,0.0,-999,0.00,,,0.01,,2013-01-01 12:12:00,
2013-01-01 05:22:00,26.0,-99.9,30.31,SSW,203,0.0,0.0,-999,0.00,,,0.01,,2013-01-01 12:22:00,
2013-01-01 05:33:00,25.0,-99.9,30.31,SSW,203,0.0,0.0,-999,0.00,,,0.01,,2013-01-01 12:33:00,
2013-01-01 05:43:00,25.0,-99.9,30.31,SSW,203,0.0,0.0,-999,0.00,,,0.01,,2013-01-01 12:43:00,
2013-01-01 05:53:00,26.0,-99.9,30.31,SSW,203,0.0,0.0,-999,0.00,,,0.01,,2013-01-01 12:53:00,
2013-01-01 06:03:00,25.0,-99.9,30.31,SSW,203,0.0,0.0,-999,0.00,,,0.01,,2013-01-01 13:03:00,
2013-01-01 06:12:00,25.0,-99.9,30.31,SSW,203,0.0,0.0,-999,0.00,,,0.01,,2013-01-01 13:12:00,
2013-01-01 06:22:00,25.0,-99.9,30.31,SSW,203,0.0,0.0,-999,0.00,,,0.01,,2013-01-01 13:22:00,
2013-01-01 06:33:00,24.0,-99.9,30.31,SSW,203,0.0,0.0,-999,0.00,,,0.01,,2013-01-01 13:33:00,
2013-01-01 06:43:00,24.0,-99.9,30.31,SSW,203,0.0,0.0,-999,0.00,,,0.01,,2013-01-01 13:43:00,
2013-01-01 06:53:00,25.0,-99.9,30.31,SSW,203,0.0,0.0,-999,0.00,,,0.01,,2013-01-01 13:53:00,
2013-01-01 07:03:00,25.0,-99.9,30.31,SSW,203,0.0,0.0,-999,0.00,,,0.01,,2013-01-01 14:03:00,
2013-01-01 07:12:00,25.0,-99.9,30.31,SSW,203,0.0,0.0,-999,0.00,,,0.01,,2013-01-01 14:12:00,
2013-01-01 07:22:00,25.0,-99.9,30.31,SSW,203,0.0,0.0,-999,0.00,,,0.01,,2013-01-01 14:22:00,
2013-01-01 07:33:00,25.0,-99.9,30.32,SSW,203,0.0,0.0,-999,0.00,,,0.01,,2013-01-01 14:33:00,
2013-01-01 07:43:00,25.0,-99.9,30.32,SSW,203,0.0,0.0,-999,0.00,,,0.01,,2013-01-01 14:43:00,
2013-01-01 07:53:00,24.0,-99.9,30.32,SSW,203,0.0,0.0,-999,0.00,,,0.01,,2013-01-01 14:53:00,
2013-01-01 08:03:00,25.0,-99.9,30.32,SSW,203,0.0,0.0,-999,0.00,,,0.01,,2013-01-01 15:03:00,
2013-01-01 08:13:00,26.0,-99.9,30.32,SSW,203,0.0,0.0,-999,0.00,,,0.00,,2013-01-01 15:13:00,
2013-01-01 08:22:00,26.0,-99.9,30.32,SSW,203,0.0,0.0,-999,0.00,,,0.00,,2013-01-01 15:22:00,
2013-01-01 08:33:00,26.0,-99.9,30.32,SSW,203,0.0,0.0,-999,0.00,,,0.00,,2013-01-01 15:33:00,
2013-01-01 08:43:00,26.0,-99.9,30.32,SSW,203,0.0,0.0,-999,0.00,,,0.00,,2013-01-01 15:43:00,
2013-01-01 08:53:00,28.0,-99.9,30.32,South,184,0.0,2.0,-999,0.00,,,0.00,,2013-01-01 15:53:00,
2013-01-01 09:02:00,28.0,-99.9,30.32,SSW,198,3.0,3.0,-999,0.00,,,0.00,,2013-01-01 16:02:00,
2013-01-01 09:12:00,28.0,-99.9,30.32,SSW,198,3.0,3.0,-999,0.00,,,0.00,,2013-01-01 16:12:00,
2013-01-01 09:22:00,29.0,-99.9,30.32,South,187,0.0,4.0,-999,0.00,,,0.00,,2013-01-01 16:22:00,
2013-01-01 09:33:00,30.0,-99.9,30.33,SSE,163,0.0,0.0,-999,0.00,,,0.00,,2013-01-01 16:33:00,
2013-01-01 09:43:00,30.0,-99.9,30.33,SSE,163,0.0,0.0,-999,0.00,,,0.00,,2013-01-01 16:43:00,
2013-01-01 09:53:00,33.0,-99.9,30.33,South,178,2.0,6.0,-999,0.00,,,0.00,,2013-01-01 16:53:00,
2013-01-01 10:03:00,34.0,-99.9,30.34,SSW,209,0.0,3.0,-999,0.00,,,0.00,,2013-01-01 17:03:00,
2013-01-01 10:12:00,34.0,-99.9,30.34,SSW,209,0.0,3.0,-999,0.00,,,0.00,,2013-01-01 17:12:00,
2013-01-01 10:23:00,36.0,-99.9,30.34,South,191,0.0,2.0,-999,0.00,,,0.00,,2013-01-01 17:23:00,
2013-01-01 10:33:00,37.0,-99.9,30.34,SSW,196,2.0,6.0,-999,0.00,,,0.00,,2013-01-01 17:33:00,
2013-01-01 10:43:00,37.0,-99.9,30.34,SSW,196,2.0,6.0,-999,0.00,,,0.00,,2013-01-01 17:43:00,
2013-01-01 10:53:00,38.0,-99.9,30.34,SSE,157,0.0,0.0,-999,0.00,,,0.00,,2013-01-01 17:53:00,
2013-01-01 11:03:00,39.0,-99.9,30.33,SW,234,0.0,5.0,-999,0.00,,,0.00,,2013-01-01 18:03:00,
2013-01-01 11:13:00,39.0,-99.9,30.33,SW,234,0.0,5.0,-999,0.00,,,0.00,,2013-01-01 18:13:00,
2013-01-01 11:23:00,39.0,-99.9,30.32,SW,229,0.0,0.0,-999,0.00,,,0.00,,2013-01-01 18:23:00,
2013-01-01 11:33:00,39.0,-99.9,30.32,SW,229,0.0,0.0,-999,0.00,,,0.00,,2013-01-01 18:33:00,
2013-01-01 11:43:00,39.0,-99.9,30.32,SW,229,0.0,0.0,-999,0.00,,,0.00,,2013-01-01 18:43:00,
2013-01-01 11:53:00,39.0,-99.9,30.32,SW,229,0.0,0.0,-999,0.00,,,0.00,,2013-01-01 18:53:00,
2013-01-01 12:02:00,43.0,-99.9,30.29,South,172,1.0,5.0,-999,0.00,,,0.00,,2013-01-01 19:02:00,
2013-01-01 12:12:00,43.0,-99.9,30.29,South,172,1.0,5.0,-999,0.00,,,0.00,,2013-01-01 19:12:00,
2013-01-01 12:22:00,46.0,-99.9,30.28,SSW,192,0.0,3.0,-999,0.00,,,0.00,,2013-01-01 19:22:00,
2013-01-01 12:33:00,46.0,-99.9,30.28,SSE,157,4.0,6.0,-999,0.00,,,0.00,,2013-01-01 19:33:00,
2013-01-01 12:43:00,46.0,-99.9,30.28,SSE,157,4.0,6.0,-999,0.00,,,0.00,,2013-01-01 19:43:00,
2013-01-01 12:53:00,45.0,-99.9,30.27,WSW,240,1.0,9.0,-999,0.00,,,0.00,,2013-01-01 19:53:00,
2013-01-01 13:02:00,46.0,-99.9,30.25,South,182,0.0,0.0,-999,0.00,,,0.00,,2013-01-01 20:02:00,
2013-01-01 13:13:00,46.0,-99.9,30.25,South,182,0.0,0.0,-999,0.00,,,0.00,,2013-01-01 20:13:00,
2013-01-01 13:23:00,47.0,-99.9,30.24,South,189,0.0,0.0,-999,0.00,,,0.00,,2013-01-01 20:23:00,
2013-01-01 13:32:00,47.0,-99.9,30.24,SE,126,0.0,7.0,-999,0.00,,,0.00,,2013-01-01 20:32:00,
2013-01-01 13:43:00,47.0,-99.9,30.24,SE,126,0.0,7.0,-999,0.00,,,0.00,,2013-01-01 20:43:00,
2013-01-01 13:53:00,45.0,-99.9,30.23,NW,326,0.0,0.0,-999,0.00,,,0.00,,2013-01-01 20:53:00,
2013-01-01 14:03:00,47.0,-99.9,30.22,SE,125,0.0,6.0,-999,0.00,,,0.00,,2013-01-01 21:03:00,
2013-01-01 14:13:00,47.0,-99.9,30.21,ENE,60,0.0,7.0,-999,0.00,,,0.00,,2013-01-01 21:13:00,
2013-01-01 14:22:00,47.0,-99.9,30.21,ENE,60,0.0,7.0,-999,0.00,,,0.00,,2013-01-01 21:22:00,
2013-01-01 14:33:00,47.0,-99.9,30.21,SSE,164,0.0,0.0,-999,0.00,,,0.00,,2013-01-01 21:33:00,
2013-01-01 14:43:00,47.0,-99.9,30.21,SSE,164,0.0,0.0,-999,0.00,,,0.00,,2013-01-01 21:43:00,
2013-01-01 14:53:00,47.0,-99.9,30.22,East,88,0.0,0.0,-999,0.00,,,0.00,,2013-01-01 21:53:00,
2013-01-01 15:03:00,47.0,-99.9,30.20,ENE,63,0.0,0.0,-999,0.00,,,0.00,,2013-01-01 22:03:00,
2013-01-01 15:12:00,47.0,-99.9,30.20,ENE,63,0.0,0.0,-999,0.00,,,0.00,,2013-01-01 22:12:00,
2013-01-01 15:23:00,47.0,-99.9,30.20,East,82,0.0,5.0,-999,0.00,,,0.00,,2013-01-01 22:23:00,
2013-01-01 15:33:00,47.0,-99.9,30.20,East,99,0.0,2.0,-999,0.00,,,0.00,,2013-01-01 22:33:00,
2013-01-01 15:43:00,47.0,-99.9,30.20,East,99,0.0,2.0,-999,0.00,,,0.00,,2013-01-01 22:43:00,
2013-01-01 15:53:00,48.0,-99.9,30.20,East,88,0.0,0.0,-999,0.00,,,0.00,,2013-01-01 22:53:00,
2013-01-01 16:03:00,48.0,-99.9,30.20,East,88,0.0,0.0,-999,0.00,,,0.00,,2013-01-01 23:03:00,
2013-01-01 16:13:00,48.0,-99.9,30.20,East,88,0.0,0.0,-999,0.00,,,0.00,,2013-01-01 23:13:00,
2013-01-01 16:22:00,48.0,-99.9,30.20,East,88,0.0,0.0,-999,0.00,,,0.00,,2013-01-01 23:22:00,
2013-01-01 16:33:00,48.0,-99.9,30.19,East,88,0.0,0.0,-999,0.00,,,0.00,,2013-01-01 23:33:00,
2013-01-01 16:42:00,48.0,-99.9,30.19,East,88,0.0,0.0,-999,0.00,,,0.00,,2013-01-01 23:42:00,
2013-01-01 16:53:00,48.0,-99.9,30.19,East,88,0.0,0.0,-999,0.00,,,0.00,,2013-01-01 23:53:00,
2013-01-01 17:03:00,46.0,-99.9,30.19,East,88,0.0,0.0,-999,0.00,,,0.00,,2013-01-02 00:03:00,
2013-01-01 17:12:00,46.0,-99.9,30.19,East,88,0.0,0.0,-999,0.00,,,0.00,,2013-01-02 00:12:00,
2013-01-01 17:22:00,46.0,-99.9,30.19,East,88,0.0,0.0,-999,0.00,,,0.00,,2013-01-02 00:22:00,
2013-01-01 17:33:00,45.0,-99.9,30.19,East,88,0.0,0.0,-999,0.00,,,0.00,,2013-01-02 00:33:00,
2013-01-01 17:43:00,45.0,-99.9,30.19,East,88,0.0,0.0,-999,0.00,,,0.00,,2013-01-02 00:43:00,
2013-01-01 17:53:00,44.0,-99.9,30.19,East,88,0.0,0.0,-999,0.00,,,0.00,,2013-01-02 00:53:00,
2013-01-01 18:02:00,43.0,-99.9,30.20,East,88,0.0,0.0,-999,0.00,,,0.00,,2013-01-02 01:02:00,
2013-01-01 18:12:00,43.0,-99.9,30.20,East,88,0.0,0.0,-999,0.00,,,0.00,,2013-01-02 01:12:00,
2013-01-01 18:22:00,43.0,-99.9,30.20,East,88,0.0,0.0,-999,0.00,,,0.00,,2013-01-02 01:22:00,
2013-01-01 18:33:00,42.0,-99.9,30.20,East,88,0.0,0.0,-999,0.00,,,0.00,,2013-01-02 01:33:00,
2013-01-01 18:42:00,42.0,-99.9,30.20,East,88,0.0,0.0,-999,0.00,,,0.00,,2013-01-02 01:42:00,
2013-01-01 18:53:00,40.0,-99.9,30.20,East,88,0.0,0.0,-999,0.00,,,0.00,,2013-01-02 01:53:00,
2013-01-01 19:02:00,39.0,-99.9,30.20,East,88,0.0,0.0,-999,0.00,,,0.00,,2013-01-02 02:02:00,
2013-01-01 19:12:00,39.0,-99.9,30.20,East,88,0.0,0.0,-999,0.00,,,0.00,,2013-01-02 02:12:00,
2013-01-01 19:22:00,39.0,-99.9,30.21,East,88,0.0,0.0,-999,0.00,,,0.00,,2013-01-02 02:22:00,
2013-01-01 19:33:00,38.0,-99.9,30.22,East,88,0.0,0.0,-999,0.00,,,0.00,,2013-01-02 02:33:00,
2013-01-01 19:43:00,38.0,-99.9,30.22,East,88,0.0,0.0,-999,0.00,,,0.00,,2013-01-02 02:43:00,
2013-01-01 19:53:00,38.0,-99.9,30.22,East,88,0.0,0.0,-999,0.00,,,0.00,,2013-01-02 02:53:00,
2013-01-01 20:02:00,37.0,-99.9,30.22,East,88,0.0,0.0,-999,0.00,,,0.00,,2013-01-02 03:02:00,
2013-01-01 20:12:00,37.0,-99.9,30.22,East,88,0.0,0.0,-999,0.00,,,0.00,,2013-01-02 03:12:00,
2013-01-01 20:22:00,37.0,-99.9,30.22,East,88,0.0,0.0,-999,0.00,,,0.00,,2013-01-02 03:22:00,
2013-01-01 20:32:00,37.0,-99.9,30.22,East,88,0.0,0.0,-999,0.00,,,0.00,,2013-01-02 03:32:00,
2013-01-01 20:42:00,37.0,-99.9,30.22,East,88,0.0,0.0,-999,0.00,,,0.00,,2013-01-02 03:42:00,
2013-01-01 20:53:00,36.0,-99.9,30.23,East,88,0.0,0.0,-999,0.00,,,0.00,,2013-01-02 03:53:00,
2013-01-01 21:03:00,35.0,-99.9,30.23,East,88,0.0,0.0,-999,0.00,,,0.00,,2013-01-02 04:03:00,
2013-01-01 21:12:00,35.0,-99.9,30.23,East,88,0.0,0.0,-999,0.00,,,0.00,,2013-01-02 04:12:00,
2013-01-01 21:22:00,35.0,-99.9,30.23,East,88,0.0,0.0,-999,0.00,,,0.00,,2013-01-02 04:22:00,
2013-01-01 21:33:00,35.0,-99.9,30.22,East,88,0.0,0.0,-999,0.00,,,0.00,,2013-01-02 04:33:00,
2013-01-01 21:42:00,35.0,-99.9,30.22,East,88,0.0,0.0,-999,0.00,,,0.00,,2013-01-02 04:42:00,
2013-01-01 21:53:00,36.0,-99.9,30.23,East,88,0.0,0.0,-999,0.00,,,0.00,,2013-01-02 04:53:00,
2013-01-01 22:03:00,36.0,-99.9,30.23,East,88,0.0,0.0,-999,0.00,,,0.00,,2013-01-02 05:03:00,
2013-01-01 22:12:00,36.0,-99.9,30.23,East,88,0.0,0.0,-999,0.00,,,0.00,,2013-01-02 05:12:00,
2013-01-01 22:22:00,35.0,-99.9,30.23,East,88,0.0,0.0,-999,0.00,,,0.00,,2013-01-02 05:22:00,
2013-01-01 22:33:00,35.0,-99.9,30.23,East,88,0.0,0.0,-999,0.00,,,0.00,,2013-01-02 05:33:00,
2013-01-01 22:43:00,35.0,-99.9,30.23,East,88,0.0,0.0,-999,0.00,,,0.00,,2013-01-02 05:43:00,
2013-01-01 22:53:00,34.0,-99.9,30.23,East,88,0.0,0.0,-999,0.00,,,0.00,,2013-01-02 05:53:00,
2013-01-01 23:02:00,33.0,-99.9,30.24,East,88,0.0,0.0,-999,0.00,,,0.00,,2013-01-02 06:02:00,
2013-01-01 23:12:00,33.0,-99.9,30.24,East,88,0.0,0.0,-999,0.00,,,0.00,,2013-01-02 06:12:00,
2013-01-01 23:22:00,33.0,-99.9,30.24,East,88,0.0,0.0,-999,0.00,,,0.00,,2013-01-02 06:22:00,
2013-01-01 23:33:00,32.0,-99.9,30.24,East,88,0.0,0.0,-999,0.00,,,0.00,,2013-01-02 06:33:00,
2013-01-01 23:42:00,32.0,-99.9,30.24,East,88,0.0,0.0,-999,0.00,,,0.00,,2013-01-02 06:42:00,
2013-01-01 23:53:00,32.0,-99.9,30.24,East,88,0.0,0.0,-999,0.00,,,0.00,,2013-01-02 06:53:00,